[[{"header":{"parameterUnit":"m.s-1","parameterCategory":1,"la1":30.2992,"la2":30.254,"lo1":-89.0895,"lo2":-89.0443,"dy":0.0025,"dx":0.0025,"nx":19,"ny":19,"refTime":"2026-04-30T09:00:00:Z","depth":0,"parameterNumber":2,"parameterNumberName":"U-component_of_WINDS"},"data":[0,0,0,-1.8044,-1.8043,-1.7977,-1.7976,-1.7899,-1.7899,0,0,0,0,0,0,0,0,0,0,0,-1.8072,-1.8072,-1.8044,-1.8043,-1.7977,-1.7976,-1.7899,-1.7899,0,0,0,0,0,0,0,0,0,0,0,-1.8072,-1.8072,-1.8072,-1.8043,-1.7977,-1.7976,-1.79,-1.7946,0,0,0,0,0,0,0,0,0,0,-1.8009,-1.8043,-1.8072,-1.8072,-1.8042,-1.7977,-1.7976,-1.7948,-1.7943,-1.7934,0,-1.793,0,-1.7914,-1.7894,-1.7894,0,0,0,-1.8036,-1.8047,-1.8023,-1.8072,-1.8042,-1.7977,-1.8005,-1.7945,-1.794,-1.7927,-1.7929,-1.7926,-1.7912,-1.7894,-1.7894,-1.7868,-1.7868,0,0,-1.804,-1.8064,-1.8026,-1.8019,-1.8034,-1.8007,-1.8003,-1.7942,-1.7944,-1.7929,-1.7924,-1.7911,-1.7893,-1.7893,-1.7868,-1.7868,0,0,0,-1.8055,-1.8067,-1.8043,-1.8023,-1.801,-1.8005,-1.8,-1.7947,-1.7937,-1.7923,-1.791,-1.7893,-1.7892,-1.7868,-1.7868,-1.7902,0,0,0,-1.8057,-1.8075,-1.8045,-1.8059,-1.8012,-1.7979,-1.8007,-1.7942,-1.7934,-1.7911,-1.7893,-1.7892,-1.7867,-1.7868,-1.79,-1.7913,0,0,0,-1.8073,-1.8077,-1.8071,-1.806,-1.8033,-1.7979,-1.7966,-1.7939,-1.7926,-1.7894,-1.7892,-1.7867,-1.7868,-1.7899,-1.7911,-1.7913,0,0,0,-1.8097,-1.8101,-1.8072,-1.807,-1.8034,-1.8001,-1.7966,-1.794,-1.7916,-1.7893,-1.7867,-1.7868,-1.7898,-1.7909,-1.7912,-1.7918,-1.7924,0,0,-1.8115,-1.8104,-1.8101,-1.8073,-1.8052,-1.8009,-1.7992,-1.7947,-1.792,-1.7886,-1.7885,-1.7901,-1.7911,-1.7912,-1.7947,-1.7952,0,0,0,-1.8114,-1.8112,-1.8101,-1.8081,-1.8048,-1.802,-1.7975,-1.7958,-1.7928,-1.7909,-1.7901,-1.7906,-1.7906,-1.7908,-1.7912,-1.791,-1.787,-1.787,-1.787,-1.8172,-1.814,-1.8132,-1.8092,-1.8072,-1.8026,-1.8006,-1.7974,-1.7946,-1.7945,-1.7935,-1.796,-1.7963,-1.7966,-1.7964,-1.7936,-1.7936,-1.7936,-1.7936,-1.8194,-1.8185,-1.8149,-1.8129,-1.8093,-1.8074,-1.8029,-1.8009,-1.7985,-1.7965,-1.7964,-1.7945,-1.7972,-1.7968,-1.7938,-1.7938,-1.7938,-1.7938,-1.7937,-1.8228,-1.8218,-1.8199,-1.8165,-1.8142,-1.81,-1.8078,-1.8046,-1.8016,-1.8014,-1.7999,-1.7998,-1.7992,-1.8009,-1.8009,-1.8009,-1.8009,-1.801,-1.801,-1.8271,-1.8247,-1.8235,-1.8199,-1.8181,-1.8153,-1.8106,-1.8086,-1.8055,-1.8034,-1.8033,-1.8004,-1.7982,-1.7976,-1.8011,-1.8011,-1.801,-1.801,-1.801,-1.8303,-1.8291,-1.8271,-1.8254,-1.8208,-1.8187,-1.8146,-1.8109,-1.8088,-1.8077,-1.8048,-1.8037,-1.8023,-1.8019,-1.8014,-1.8057,-1.8057,-1.8057,-1.8057,-1.8332,-1.8322,-1.8294,-1.8267,-1.8237,-1.8199,-1.8174,-1.8136,-1.8094,-1.8078,-1.8067,-1.8058,-1.8056,-1.8042,-1.8038,-1.8033,-1.8079,-1.8079,-1.8079,-1.8349,-1.8335,-1.8322,-1.8283,-1.8245,-1.8212,-1.8187,-1.8155,-1.8104,-1.8079,-1.8064,-1.8063,-1.8048,-1.8045,-1.802,-1.8015,-1.8005,0,0]},{"header":{"parameterUnit":"m.s-1","parameterCategory":1,"la1":30.2992,"la2":30.254,"lo1":-89.0895,"lo2":-89.0443,"dy":0.0025,"dx":0.0025,"nx":19,"ny":19,"refTime":"2026-04-30T09:00:00:Z","depth":0,"parameterNumber":3,"parameterNumberName":"V-component_of_WINDS"},"data":[0,0,0,-3.312,-3.3123,-3.3305,-3.3306,-3.3523,-3.3525,0,0,0,0,0,0,0,0,0,0,0,-3.3059,-3.306,-3.3119,-3.3124,-3.3305,-3.3306,-3.3522,-3.3525,0,0,0,0,0,0,0,0,0,0,0,-3.3058,-3.306,-3.3061,-3.3124,-3.3305,-3.3306,-3.3522,-3.339,0,0,0,0,0,0,0,0,0,0,-3.3216,-3.3154,-3.306,-3.3062,-3.3125,-3.3305,-3.3306,-3.3384,-3.3398,-3.3435,0,-3.3467,0,-3.35,-3.3538,-3.3539,0,0,0,-3.3128,-3.3142,-3.3197,-3.3062,-3.3127,-3.3304,-3.3225,-3.3392,-3.3408,-3.3454,-3.3471,-3.3479,-3.3503,-3.354,-3.3541,-3.3741,-3.3742,0,0,-3.3118,-3.3087,-3.3186,-3.3207,-3.3181,-3.3219,-3.323,-3.3402,-3.3417,-3.3471,-3.3484,-3.3507,-3.3541,-3.3543,-3.3741,-3.3741,0,0,0,-3.3086,-3.308,-3.3132,-3.3198,-3.3232,-3.3224,-3.3237,-3.341,-3.3429,-3.3487,-3.3509,-3.3542,-3.3545,-3.374,-3.3741,-3.3747,0,0,0,-3.3081,-3.3062,-3.3127,-3.311,-3.3229,-3.3324,-3.3241,-3.3417,-3.3438,-3.3508,-3.3542,-3.3547,-3.3739,-3.374,-3.3745,-3.3754,0,0,0,-3.3049,-3.3058,-3.3082,-3.3108,-3.3185,-3.3322,-3.3351,-3.3423,-3.3451,-3.3539,-3.3547,-3.3739,-3.374,-3.3744,-3.3752,-3.3798,0,0,0,-3.3007,-3.3084,-3.3082,-3.3177,-3.3183,-3.3325,-3.3351,-3.3457,-3.3533,-3.3543,-3.3739,-3.3741,-3.3743,-3.375,-3.3796,-3.383,-3.3842,0,0,-3.3087,-3.3093,-3.3151,-3.3154,-3.3289,-3.33,-3.3434,-3.3532,-3.3568,-3.3681,-3.3686,-3.3746,-3.3752,-3.3797,-3.392,-3.3929,0,0,0,-3.3166,-3.3207,-3.325,-3.3322,-3.34,-3.3467,-3.3548,-3.3584,-3.3682,-3.3621,-3.3776,-3.3781,-3.3808,-3.3826,-3.3834,-3.3859,-3.3748,-3.3748,-3.3748,-3.3234,-3.3277,-3.3376,-3.3441,-3.3511,-3.3594,-3.3653,-3.3716,-3.3738,-3.3774,-3.3807,-3.3877,-3.3897,-3.3903,-3.3928,-3.383,-3.383,-3.383,-3.383,-3.3354,-3.3419,-3.3449,-3.3555,-3.36,-3.3689,-3.3771,-3.3784,-3.3872,-3.3855,-3.3882,-3.3859,-3.3911,-3.3936,-3.3831,-3.3831,-3.3831,-3.383,-3.383,-3.3403,-3.3441,-3.3486,-3.3594,-3.3673,-3.3735,-3.3819,-3.3856,-3.3892,-3.3918,-3.3957,-3.3957,-3.396,-3.3934,-3.3935,-3.3935,-3.3935,-3.3935,-3.3935,-3.3434,-3.3485,-3.3552,-3.3642,-3.3693,-3.3765,-3.3849,-3.39,-3.3965,-3.3985,-3.3985,-3.4002,-3.391,-3.3884,-3.3939,-3.3939,-3.3938,-3.3938,-3.3937,-3.3538,-3.3521,-3.3625,-3.3676,-3.3785,-3.3859,-3.3907,-3.4006,-3.4053,-3.4093,-3.4105,-3.4031,-3.4038,-3.4033,-3.4012,-3.4097,-3.4097,-3.4097,-3.4097,-3.3578,-3.3586,-3.3701,-3.378,-3.3862,-3.3916,-3.4029,-3.4095,-3.416,-3.4191,-3.4185,-3.4161,-3.4154,-3.4166,-3.4157,-3.4138,-3.4253,-3.4254,-3.4254,-3.3644,-3.3662,-3.3752,-3.3818,-3.3906,-3.3979,-3.4087,-3.4174,-3.4245,-3.4261,-3.4216,-3.421,-3.4172,-3.4158,-3.4171,-3.4157,-3.4123,0,0]}]]